Tracking 19280 objects as of 14-Nov-2018
HD Live streaming from Space Station
objects crossing your sky now

ANNA 1B

Track ANNA 1B now!
10-day predictions
ANNA 1B is classified as:


NORAD ID: 446
Int'l Code: 1962-060A
Perigee: 1,081.4 km
Apogee: 1,186.8 km
Inclination: 50.1 °
Period: 107.8 minutes
Semi major axis: 7505 km
RCS: 0.8414 m2 (medium)
Launch date: October 31, 1962
Source: United States (US)
Launch site: AIR FORCE EASTERN TEST RANGE (AFETR)
aabbcc
Your satellite tracking list
Your tracking list is empty




NASA's NSSDC Master Catalog

Two Line Element Set (TLE):
1   446U 62060A   18317.45385328 -.00000102 +00000-0 +48007-4 0  9993
2   446 050.1417 296.3639 0070237 065.9524 073.6617 13.35266196733254
Source of the keplerian elements: AFSPC